Regional Weather Roundup
Issued by NWS

Home | Current Version | Previous Version | Text Only | Print | Product List | Glossary On
Versions: 1 2 3 4 5 6 7 8 9 10 11 12 13 14 15 16 17 18 19 20 21 22 23 24 25 26 27 28 29 30 31 32 33 34 35 36 37 38 39 40 41 42 43 44 45 46 47 48 49 50
000
ASUS43 KLOT 301810
RWRIL

ILLINOIS REGIONAL WEATHER ROUNDUP
NATIONAL WEATHER SERVICE CHICAGO/ROMEOVILLE IL
100 PM CDT TUE SEP 30 2014

NOTE: "FAIR" INDICATES FEW OR NO CLOUDS BELOW 12,000 FEET WITH NO
SIGNIFICANT WEATHER AND/OR OBSTRUCTIONS TO VISIBILITY.

* THESE STATIONS ARE NOT UNDER NWS QUALITY CONTROL. THEY ALSO MAY NOT
  REPORT WEATHER SUCH AS PRECIPITATION OR FOG.

ILZ001-002-007-009-015-016-024-301900-
NORTHWEST ILLINOIS

CITY           SKY/WX    TMP DP  RH WIND       PRES   REMARKS
MOLINE         NOT AVBL
SAVANNA*       PTSUNNY   59  45  58 NE5       30.04F
$$

ILZ003-004-008-010-011-017-018-301900-
NORTH CENTRAL ILLINOIS

CITY           SKY/WX    TMP DP  RH WIND       PRES   REMARKS
ROCKFORD       CLOUDY    52  43  71 VRB7      30.08F
6HR MIN TEMP:  46; 6HR MAX TEMP:  52; 6HR PCP: TRACE;

FREEPORT*      CLOUDY    51  43  75 E9        30.07F
ROCHELLE*      SUNNY     57  43  59 E8        30.05F
DE KALB*       PTSUNNY   54  44  68 E6        30.05F
PERU*          MOSUNNY   61  47  61 E6        30.03F
$$

ILZ005-006-012>014-019>023-301900-
NORTHEAST ILLINOIS

CITY           SKY/WX    TMP DP  RH WIND       PRES   REMARKS
CHICAGO-OHARE  PTSUNNY   55  46  71 N10       30.04F
6HR MIN TEMP:  47; 6HR MAX TEMP:  57; 6HR PCP: TRACE;

CHICAGO-MIDWAY PTSUNNY   58  49  72 N10       30.04F
6HR MIN TEMP:  51; 6HR MAX TEMP:  59; 6HR PCP: TRACE;

AURORA         CLOUDY    56  45  66 E10       30.05F
6HR MIN TEMP:  48; 6HR MAX TEMP:  56;

LANSING*       PTSUNNY   58  49  71 N9        30.03F
JOLIET*        CLOUDY    55  47  73 N7        30.04F
WAUKEGAN       NOT AVBL
DUPAGE AIRPORT CLOUDY    57  46  66 NE8       30.04F
6HR MIN TEMP:  48; 6HR MAX TEMP:  57;

KANKAKEE*      MOSUNNY   62  50  65 NE10G17   30.02F
WHEELING       CLOUDY    56  46  69 N6        30.05F
6HR MIN TEMP:  48; 6HR MAX TEMP:  57;

MORRIS*        PTSUNNY   58  49  70 E5        30.03F
ROMEOVILLE*    CLOUDY    55  46  71 E9        30.04F
NORTHERLY ISL    N/A     54  50  86 N13         N/A
$$

LMZ740>746-301900-
SOUTHERN LAKE MICHIGAN

STATION/POSITION SKY/WX   TEMP    WIND        PRES    VSBY  WAVE
                          AIR SEA DIR/SP/G                  HT/PER
                          (F)     (DEG/KT/KT) (MB)    (MI)  (FT/S)
SOUTHERN BUOY              53 62   10/ 12/ 16 1017.4R         5/ 7
WAUKEGAN HARBOR            52      20/ 16/ 20   N/A
HARRISON CRIB              53     360/ 12/ 14   N/A
BURNHAM HARBOR             56     350/  9/ 13   N/A
CALUMET HARBOR             56     330/ 10/ 15 1016.0S
MICHIGAN CITY              52      10/ 13/ 17   N/A
MICHIGAN CITY 6N           55 64   10/ 10/ 16   N/A           6/ 2
ST. JOSEPH                 54 62  360/ 12/ 16   N/A           5/ 2
$$

ILZ025>027-034>036-040-047-049-050-058-095>099-301900-
WEST-CENTRAL ILLINOIS

CITY           SKY/WX    TMP DP  RH WIND       PRES   REMARKS
QUINCY         CLOUDY    63  58  83 E9        29.97F HAZE
GALESBURG*     PTSUNNY   60  52  75 E6        30.01F
MACOMB*        CLOUDY    62  56  80 NE6       30.02F
JACKSONVILLE*  PTSUNNY   67  60  76 NE8       29.99F
PITTSFIELD*    CLOUDY    64  59  83 E7        29.99F HAZE
$$

ILZ028>032-037-038-041>044-048-051>054-059>061-301900-
CENTRAL ILLINOIS

CITY           SKY/WX    TMP DP  RH WIND       PRES   REMARKS
PONTIAC        MOSUNNY   64  52  63 NE6       30.01F
BLOOMINGTON    SUNNY     67  53  60 NE9         N/A
DECATUR        SUNNY     70  57  63 VRB3      29.99F
PEORIA         MOSUNNY   66  52  60 E7        30.01S
6HR MIN TEMP:  58; 6HR MAX TEMP:  67;

LACON*         CLOUDY    62  48  60 NE5       30.01F
LINCOLN*       PTSUNNY   70  55  58 N5        29.97S
SPRINGFIELD    MOSUNNY   68  58  70 NE6       29.99F
6HR MIN TEMP:  57; 6HR MAX TEMP:  68;

TAYLORVILLE    MOSUNNY   68  57  68 CALM      29.98F
$$

ILZ033-039-045-046-055>057-062-063-301900-
EAST-CENTRAL ILLINOIS

CITY           SKY/WX    TMP DP  RH WIND       PRES   REMARKS
CHAMPAIGN      SUNNY     67  54  63 NE9       29.99F
DANVILLE*      SUNNY     67  52  59 N7        29.96F
RANTOUL*       SUNNY     67  51  55 NE7       29.99F
MATTOON        SUNNY     70  57  63 NE7       29.97F
PARIS*         SUNNY     69  56  63 NE7       29.98F
$$

ILZ079-100>102-301900-
SOUTHWEST ILLINOIS

CITY           SKY/WX    TMP DP  RH WIND       PRES   REMARKS
ALTON          PTSUNNY   79  54  41 CALM      29.95F
BELLEVILLE     MOSUNNY   82  61  47 N3        29.93F HAZE    HX  83
CAHOKIA*       MOSUNNY   84  56  38 NE3       29.94F HX  83
SPARTA*        MOSUNNY   84  56  38 S3        29.95F HX  83
$$

ILZ064>066-069>071-074>076-080>082-084>086-088>090-092>094-301900-
SOUTH-CENTRAL ILLINOIS

CITY           SKY/WX    TMP DP  RH WIND       PRES   REMARKS
CARBONDALE     MOSUNNY   82  58  43 SE6       29.94F HX  82
6HR MIN TEMP:  52; 6HR MAX TEMP:  84;

CAIRO*         SUNNY     85  51  30 CALM      29.94F HX  83
EFFINGHAM*     FAIR      69  57  65 N3        29.98F HAZE
MARION         MOSUNNY   84  57  39 N3        29.96F HX  83
CENTRALIA*     SUNNY     81  56  42 CALM      29.95F HX  81
SALEM*         SUNNY     82  64  54 N6        29.96S HX  83
METROPOLIS*    MOSUNNY   84  56  37 W6        29.94F HX  83
$$

ILZ067-068-072-073-078-083-087-091-301900-
SOUTHEAST ILLINOIS

CITY           SKY/WX    TMP DP  RH WIND       PRES   REMARKS
LAWRENCEVILLE  SUNNY     74  62  66 NE7       29.96F HAZE
FLORA*         SUNNY     76  60  57 NE3       29.96F
FAIRFIELD*     SUNNY     81  61  50 N5        29.94F HX  81
HARRISBURG*    SUNNY     82  57  43 NW7       29.95F HX  82
ROBINSON*      MOSUNNY   70  62  77 N6        29.98F
CARMI*         SUNNY     86  60  40 N5        29.93F HX  86
$$

ABBREVIATIONS USED IN REMARKS
   TC - TEMPERATURE IN CELSIUS
  WCI - WIND CHILL INDEX
   HX - HEAT INDEX
  VSB - VISIBILITY
$$



USA.gov is the U.S. government's official web portal to all federal, state and local government web resources and services.